^^
Garrymore Weather Station Historical Data
Daily Summary for October 21, 2020 Units:  Metric    English   Both
Daily Weekly Monthly Yearly Custom
  High: Low: Average:
Temperature: 15 °C 7 °C 9.7 °C
Dew Point: 13 °C -23 °C 6.7 °C
Humidity: 91% 10% 83%
Wind Speed: 93km/h 0km/h 10.6km/h
Wind Gust: 93km/h - -
Wind- - WSW
Pressure: 1021.1 hPa 994.31 hPa -
Precipitation: 8.99 mm    
Historical Graphs
 
 
Tabular Data for October 21, 2020
Time Temperature Dew Point Pressure Wind Wind Speed Wind Gust Humidity Rainfall Rate (Hourly) solar
00:00 11 °C 8 °C 994.31 hPa S 11 km/h 26 km/h 83% 0 mm 0 W/m2
00:05 11 °C 8 °C 994.31 hPa S 19 km/h 27 km/h 83% 0 mm 0 W/m2
00:10 11 °C 8 °C 994.48 hPa S 13 km/h 27 km/h 83% 0 mm 0 W/m2
00:15 11 °C 8 °C 994.41 hPa S 13 km/h 27 km/h 83% 0 mm 0 W/m2
00:20 11 °C 8 °C 994.58 hPa S 14 km/h 24 km/h 83% 0 mm 0 W/m2
00:25 11 °C 8 °C 994.41 hPa S 16 km/h 27 km/h 83% 0 mm 0 W/m2
00:30 11 °C 8 °C 994.31 hPa S 19 km/h 27 km/h 83% 0 mm 0 W/m2
00:35 11 °C 8 °C 994.48 hPa S 13 km/h 27 km/h 83% 0 mm 0 W/m2
00:40 11 °C 8 °C 994.38 hPa S 13 km/h 26 km/h 83% 0 mm 0 W/m2
00:45 11 °C 8 °C 994.48 hPa S 21 km/h 32 km/h 83% 0 mm 0 W/m2
00:50 10 °C 8 °C 994.58 hPa S 16 km/h 32 km/h 83% 0 mm 0 W/m2
00:55 10 °C 8 °C 994.51 hPa S 19 km/h 27 km/h 83% 0 mm 0 W/m2
01:00 10 °C 7 °C 994.79 hPa SSW 14 km/h 27 km/h 83% 0 mm 0 W/m2
01:05 10 °C 7 °C 994.89 hPa SSW 16 km/h 26 km/h 83% 0 mm 0 W/m2
01:10 10 °C 7 °C 994.41 hPa S 13 km/h 26 km/h 83% 0 mm 0 W/m2
01:15 10 °C 8 °C 994.68 hPa S 16 km/h 24 km/h 84% 0 mm 0 W/m2
01:20 10 °C 8 °C 994.68 hPa S 16 km/h 27 km/h 85% 0 mm 0 W/m2
01:25 10 °C 8 °C 994.82 hPa S 14 km/h 24 km/h 85% 0 mm 0 W/m2
01:30 10 °C 7 °C 995.02 hPa S 16 km/h 26 km/h 85% 0 mm 0 W/m2
01:35 10 °C 7 °C 995.19 hPa S 14 km/h 24 km/h 85% 0 mm 0 W/m2
01:40 10 °C 7 °C 995.29 hPa S 13 km/h 23 km/h 85% 0 mm 0 W/m2
01:45 10 °C 7 °C 995.29 hPa S 10 km/h 21 km/h 85% 0 mm 0 W/m2
01:50 10 °C 7 °C 995.23 hPa SSE 13 km/h 18 km/h 85% 0 mm 0 W/m2
01:55 9 °C 7 °C 995.29 hPa S 10 km/h 14 km/h 85% 0 mm 0 W/m2
02:00 9 °C 7 °C 995.19 hPa S 10 km/h 21 km/h 85% 0 mm 0 W/m2
02:05 9 °C 7 °C 995.29 hPa SSE 11 km/h 18 km/h 86% 0 mm 0 W/m2
02:10 9 °C 7 °C 995.19 hPa SSE 11 km/h 21 km/h 86% 0 mm 0 W/m2
02:15 9 °C 7 °C 995.19 hPa SSE 11 km/h 18 km/h 86% 0 mm 0 W/m2
02:20 10 °C 8 °C 995.19 hPa SSE 8 km/h 16 km/h 87% 0 mm 0 W/m2
02:25 10 °C 8 °C 995.19 hPa SSE 11 km/h 19 km/h 87% 0 mm 0 W/m2
02:30 10 °C 8 °C 995.29 hPa SSE 11 km/h 14 km/h 87% 0 mm 0 W/m2
02:35 10 °C 8 °C 995.29 hPa SSE 8 km/h 14 km/h 87% 0 mm 0 W/m2
02:40 10 °C 8 °C 995.19 hPa S 10 km/h 13 km/h 87% 0 mm 0 W/m2
02:45 10 °C 8 °C 994.92 hPa S 5 km/h 13 km/h 87% 0 mm 0 W/m2
02:50 9 °C 7 °C 994.99 hPa SSE 10 km/h 14 km/h 87% 0 mm 0 W/m2
02:55 9 °C 7 °C 994.89 hPa SSE 11 km/h 18 km/h 87% 0 mm 0 W/m2
03:00 9 °C 7 °C 994.82 hPa SSE 11 km/h 19 km/h 87% 0 mm 0 W/m2
03:05 9 °C 7 °C 994.89 hPa SE 13 km/h 21 km/h 87% 0 mm 0 W/m2
03:10 9 °C 7 °C 994.89 hPa SE 10 km/h 21 km/h 87% 0 mm 0 W/m2
03:15 9 °C 7 °C 994.72 hPa SSE 10 km/h 14 km/h 87% 0 mm 0 W/m2
03:20 9 °C 7 °C 995.09 hPa SSE 10 km/h 13 km/h 87% 0 mm 0 W/m2
03:25 9 °C 7 °C 995.09 hPa SSE 5 km/h 11 km/h 87% 0 mm 0 W/m2
03:30 9 °C 7 °C 995.29 hPa SSE 10 km/h 10 km/h 87% 0 mm 0 W/m2
03:35 9 °C 7 °C 995.19 hPa SSE 5 km/h 10 km/h 87% 0 mm 0 W/m2
03:40 9 °C 7 °C 995.19 hPa SSE 5 km/h 10 km/h 87% 0 mm 0 W/m2
03:45 9 °C 7 °C 995.29 hPa SSE 8 km/h 10 km/h 87% 0 mm 0 W/m2
03:50 9 °C 7 °C 995.19 hPa SSE 5 km/h 10 km/h 87% 0 mm 0 W/m2
03:55 9 °C 7 °C 995.09 hPa SSE 8 km/h 10 km/h 87% 0 mm 0 W/m2
04:00 9 °C 7 °C 995.02 hPa SSE 5 km/h 10 km/h 88% 0 mm 0 W/m2
04:05 9 °C 7 °C 994.92 hPa SSE 2 km/h 10 km/h 88% 0 mm 0 W/m2
04:10 9 °C 7 °C 995.09 hPa SSE 3 km/h 8 km/h 88% 0 mm 0 W/m2
04:15 9 °C 7 °C 994.99 hPa Calm   10 km/h 88% 0 mm 0 W/m2
04:20 9 °C 7 °C 995.09 hPa Calm   8 km/h 88% 0 mm 0 W/m2
04:25 9 °C 7 °C 995.19 hPa Calm   6 km/h 88% 0 mm 0 W/m2
04:30 9 °C 7 °C 995.19 hPa Calm   6 km/h 89% 0 mm 0 W/m2
04:35 9 °C 7 °C 995.09 hPa S 2 km/h 8 km/h 89% 0 mm 0 W/m2
04:40 9 °C 7 °C 995.09 hPa Calm   8 km/h 89% 0 mm 0 W/m2
04:45 9 °C 7 °C 995.09 hPa Calm   6 km/h 89% 0 mm 0 W/m2
04:50 9 °C 7 °C 995.09 hPa Calm     89% 0 mm 0 W/m2
04:55 9 °C 7 °C 995.19 hPa Calm   6 km/h 89% 0 mm 0 W/m2
05:00 9 °C 7 °C 995.19 hPa Calm   2 km/h 89% 0 mm 0 W/m2
05:05 9 °C 7 °C 995.19 hPa Calm   2 km/h 89% 0 mm 0 W/m2
05:10 9 °C 7 °C 995.19 hPa S 2 km/h 8 km/h 89% 0 mm 0 W/m2
05:15 9 °C 8 °C 995.12 hPa SSW 2 km/h 8 km/h 89% 0 mm 0 W/m2
05:20 9 °C 8 °C 995.12 hPa S 2 km/h 8 km/h 89% 0 mm 0 W/m2
05:25 9 °C 8 °C 995.02 hPa S 2 km/h 10 km/h 89% 0 mm 0 W/m2
05:30 9 °C 8 °C 994.89 hPa SSW 5 km/h 10 km/h 89% 0 mm 0 W/m2
05:35 9 °C 8 °C 995.19 hPa SSW 2 km/h 8 km/h 89% 0 mm 0 W/m2
05:40 9 °C 8 °C 995.29 hPa S 2 km/h 10 km/h 89% 0 mm 0 W/m2
05:45 9 °C 7 °C 995.5 hPa S 3 km/h 10 km/h 88% 0 mm 0 W/m2
05:50 9 °C 7 °C 995.4 hPa S 3 km/h 10 km/h 88% 0 mm 0 W/m2
05:55 9 °C 7 °C 995.29 hPa SSW 5 km/h 10 km/h 88% 0 mm 0 W/m2
06:00 9 °C 7 °C 995.09 hPa S 5 km/h 10 km/h 88% 0 mm 0 W/m2
06:05 9 °C 7 °C 995.19 hPa SSW 3 km/h 10 km/h 88% 0 mm 0 W/m2
06:10 9 °C 7 °C 995.29 hPa SW 2 km/h 5 km/h 88% 0 mm 0 W/m2
06:15 9 °C 7 °C 995.19 hPa SSW 2 km/h 5 km/h 88% 0 mm 0 W/m2
06:20 9 °C 7 °C 995.29 hPa S 3 km/h 6 km/h 88% 0 mm 0 W/m2
06:25 9 °C 7 °C 995.29 hPa SSE 2 km/h 8 km/h 88% 0 mm 0 W/m2
06:30 9 °C 7 °C 995.5 hPa S 5 km/h 8 km/h 88% 0 mm 0 W/m2
06:35 9 °C 7 °C 995.4 hPa SSW 2 km/h 8 km/h 88% 0 mm 0 W/m2
06:40 9 °C 7 °C 995.4 hPa SSW 2 km/h 3 km/h 88% 0 mm 0 W/m2
06:45 9 °C 7 °C 995.5 hPa SSE 2 km/h 5 km/h 88% 0 mm 0 W/m2
06:50 9 °C 7 °C 995.4 hPa SSE 5 km/h 8 km/h 88% 0 mm 0 W/m2
06:55 9 °C 7 °C 995.6 hPa SSE 5 km/h 8 km/h 88% 0 mm 0 W/m2
07:00 9 °C 7 °C 995.4 hPa S 3 km/h 8 km/h 88% 0 mm 0 W/m2
07:05 9 °C 7 °C 995.5 hPa S 2 km/h 5 km/h 88% 0 mm 0 W/m2
07:10 9 °C 7 °C 995.6 hPa S 3 km/h 6 km/h 88% 0 mm 0 W/m2
07:15 9 °C 7 °C 995.5 hPa SSE 5 km/h 8 km/h 88% 0 mm 0 W/m2
07:20 9 °C 7 °C 995.5 hPa SSE 5 km/h 8 km/h 88% 0 mm 0 W/m2
07:25 9 °C 7 °C 995.77 hPa SSE 5 km/h 8 km/h 88% 0 mm 0 W/m2
07:30 9 °C 7 °C 995.6 hPa SSE 3 km/h 8 km/h 88% 0 mm 0 W/m2
07:35 9 °C 7 °C 995.8 hPa S 5 km/h 10 km/h 88% 0 mm 0 W/m2
07:40 9 °C 7 °C 995.8 hPa SSE 5 km/h 10 km/h 88% 0 mm 0 W/m2
07:45 9 °C 8 °C 995.8 hPa SSE 5 km/h 10 km/h 89% 0 mm 0 W/m2
07:50 9 °C 8 °C 995.7 hPa SSE 5 km/h 10 km/h 89% 0 mm 0 W/m2
07:55 9 °C 8 °C 995.53 hPa SSE 5 km/h 10 km/h 89% 0 mm 0 W/m2
08:00 9 °C 8 °C 995.7 hPa SSE 5 km/h 10 km/h 89% 0 mm 0 W/m2
08:05 9 °C 8 °C 995.8 hPa SSE 5 km/h 10 km/h 89% 0 mm 0 W/m2
08:10 9 °C 8 °C 995.97 hPa SSE 5 km/h 10 km/h 89% 0 mm 0 W/m2
08:15 9 °C 8 °C 996 hPa SSE 5 km/h 10 km/h 89% 0 mm 0 W/m2
08:20 9 °C 8 °C 995.9 hPa SSE 5 km/h 10 km/h 89% 0 mm 0 W/m2
08:25 9 °C 8 °C 995.8 hPa SSE 5 km/h 10 km/h 90% 0 mm 0 W/m2
08:30 9 °C 8 °C 995.8 hPa SSE 5 km/h 8 km/h 90% 0 mm 0 W/m2
08:35 9 °C 8 °C 996.21 hPa SSE 2 km/h 5 km/h 90% 0 mm 0 W/m2
08:40 9 °C 8 °C 996.21 hPa SSE 2 km/h 3 km/h 90% 0 mm 0 W/m2
08:45 9 °C 8 °C 996.21 hPa S 2 km/h 3 km/h 90% 0 mm 0 W/m2
08:50 9 °C 8 °C 996.58 hPa S 2 km/h 6 km/h 90% 0 mm 0 W/m2
08:55 10 °C 8 °C 996.51 hPa SW 2 km/h 5 km/h 90% 0 mm 0 W/m2
09:00 10 °C 8 °C 996.61 hPa WSW 2 km/h 5 km/h 90% 0 mm 0 W/m2
09:05 10 °C 8 °C 996.61 hPa SSW 2 km/h 5 km/h 89% 0 mm 0 W/m2
09:10 10 °C 9 °C 996.61 hPa SSW 2 km/h 5 km/h 90% 0 mm 0 W/m2
09:15 10 °C 9 °C 996.61 hPa WSW 2 km/h 5 km/h 90% 0 mm 0 W/m2
09:20 10 °C 9 °C 996.68 hPa WSW 2 km/h 3 km/h 90% 0 mm 0 W/m2
09:25 15 °C 13 °C 1021.1 hPa W 2 km/h 3 km/h 90% 0 mm 0 W/m2
09:30 10 °C 9 °C 996.89 hPa WNW 2 km/h 3 km/h 90% 0 mm 0 W/m2
09:35 10 °C 9 °C 996.99 hPa WSW 2 km/h 3 km/h 90% 0 mm 0 W/m2
09:40 10 °C 9 °C 996.89 hPa WNW 2 km/h 3 km/h 90% 0 mm 0 W/m2
09:45 10 °C 9 °C 996.89 hPa WNW 2 km/h 3 km/h 90% 0 mm 0 W/m2
09:50 11 °C 9 °C 996.72 hPa WNW 2 km/h 3 km/h 90% 0 mm 0 W/m2
09:55 11 °C 9 °C 996.82 hPa Calm   3 km/h 90% 0 mm 0 W/m2
10:00 11 °C 9 °C 996.82 hPa Calm   3 km/h 90% 0 mm 0 W/m2
10:05 11 °C 9 °C 996.92 hPa WSW 2 km/h 3 km/h 90% 0 mm 0 W/m2
10:10 11 °C 9 °C 997.09 hPa W 2 km/h 3 km/h 90% 0 mm 0 W/m2
10:15 11 °C 9 °C 997.26 hPa Calm   3 km/h 91% 0 mm 0 W/m2
10:20 11 °C 9 °C 996.82 hPa Calm   3 km/h 91% 0 mm 0 W/m2
10:25 11 °C 9 °C 996.92 hPa Calm   3 km/h 91% 0 mm 0 W/m2
10:30 11 °C 9 °C 996.82 hPa Calm   3 km/h 91% 0 mm 0 W/m2
10:35 11 °C 9 °C 997.19 hPa Calm   3 km/h 91% 0 mm 0 W/m2
10:40 11 °C 9 °C 997.09 hPa Calm   3 km/h 91% 0 mm 0 W/m2
10:45 11 °C 9 °C 997.19 hPa NW 2 km/h 3 km/h 91% 0 mm 0 W/m2
10:50 11 °C 9 °C 997.02 hPa Calm   3 km/h 91% 0 mm 0 W/m2
10:55 11 °C 9 °C 997.22 hPa Calm   3 km/h 91% 0 mm 0 W/m2
11:00 11 °C 9 °C 997.33 hPa Calm     91% 0 mm 0 W/m2
11:05 11 °C 9 °C 997.49 hPa Calm     91% 0 mm 0 W/m2
11:10 11 °C 9 °C 997.39 hPa Calm     91% 0 mm 0 W/m2
11:15 11 °C 9 °C 997.49 hPa Calm     91% 0 mm 0 W/m2
11:20 11 °C 9 °C 997.39 hPa Calm     91% 0 mm 0 W/m2
11:25 11 °C 9 °C 997.39 hPa Calm     90% 0.3 mm 0 W/m2
11:30 11 °C 9 °C 997.6 hPa Calm     89% 0 mm 0 W/m2
11:35 11 °C 9 °C 997.6 hPa Calm   5 km/h 88% 0 mm 0 W/m2
11:40 11 °C 9 °C 997.8 hPa WNW 5 km/h 10 km/h 86% 0 mm 0 W/m2
11:45 11 °C 9 °C 997.9 hPa WNW 11 km/h 16 km/h 85% 0 mm 0 W/m2
11:50 11 °C 9 °C 997.9 hPa WNW 11 km/h 19 km/h 85% 0 mm 0 W/m2
11:55 11 °C 9 °C 998.27 hPa WNW 3 km/h 19 km/h 84% 0 mm 0 W/m2
12:00 11 °C 9 °C 998.21 hPa NW 3 km/h 6 km/h 84% 0 mm 0 W/m2
12:05 11 °C 8 °C 998.21 hPa NW 10 km/h 14 km/h 82% 0 mm 0 W/m2
12:10 11 °C 8 °C 998.31 hPa NW 10 km/h 14 km/h 81% 0 mm 0 W/m2
12:15 11 °C 8 °C 998.21 hPa NW 10 km/h 13 km/h 82% 0 mm 0 W/m2
12:20 11 °C 8 °C 998.21 hPa WNW 10 km/h 13 km/h 82% 0 mm 0 W/m2
12:25 11 °C 8 °C 998.31 hPa WNW 10 km/h 21 km/h 82% 0 mm 0 W/m2
12:30 11 °C 8 °C 998.51 hPa NW 10 km/h 19 km/h 82% 0 mm 0 W/m2
12:35 11 °C 8 °C 998.41 hPa NW 10 km/h 18 km/h 82% 0 mm 0 W/m2
12:40 12 °C 9 °C 998.41 hPa WNW 13 km/h 16 km/h 82% 0 mm 0 W/m2
12:45 12 °C 9 °C 998.51 hPa WNW 11 km/h 18 km/h 83% 0 mm 0 W/m2
12:50 12 °C 9 °C 998.68 hPa WNW 10 km/h 19 km/h 82% 0 mm 0 W/m2
12:55 12 °C 8 °C 998.61 hPa WNW 10 km/h 16 km/h 81% 0 mm 0 W/m2
13:00 12 °C 8 °C 998.61 hPa NW 13 km/h 26 km/h 81% 0 mm 0 W/m2
13:05 12 °C 8 °C 998.68 hPa NW 14 km/h 21 km/h 81% 0 mm 0 W/m2
13:10 12 °C 8 °C 998.58 hPa NW 19 km/h 27 km/h 79% 0 mm 0 W/m2
13:15 12 °C 8 °C 998.51 hPa WNW 19 km/h 32 km/h 79% 0 mm 0 W/m2
13:20 12 °C 8 °C 998.51 hPa WNW 19 km/h 32 km/h 79% 0 mm 0 W/m2
13:25 12 °C 8 °C 998.41 hPa NW 14 km/h 32 km/h 79% 0 mm 0 W/m2
13:30 12 °C 8 °C 998.68 hPa NW 21 km/h 29 km/h 79% 0 mm 0 W/m2
13:35 12 °C 8 °C 998.51 hPa NW 14 km/h 29 km/h 79% 0 mm 0 W/m2
13:40 12 °C 8 °C 998.61 hPa NW 13 km/h 27 km/h 80% 0 mm 0 W/m2
13:45 12 °C 8 °C 998.88 hPa WNW 21 km/h 35 km/h 79% 0 mm 0 W/m2
13:50 12 °C 8 °C 998.61 hPa NW 16 km/h 35 km/h 76% 1.5 mm 0 W/m2
13:55 12 °C 7 °C 998.98 hPa NW 21 km/h 27 km/h 75% 0 mm 0 W/m2
14:00 12 °C 8 °C 998.78 hPa NW 14 km/h 27 km/h 76% 0 mm 0 W/m2
14:05 12 °C 8 °C 998.92 hPa WNW 16 km/h 27 km/h 75% 0 mm 0 W/m2
14:10 12 °C 8 °C 998.98 hPa WNW 14 km/h 27 km/h 76% 0 mm 0 W/m2
14:15 12 °C 8 °C 998.92 hPa NW 19 km/h 35 km/h 76% 0 mm 0 W/m2
14:20 12 °C 7 °C 998.98 hPa NNW 16 km/h 35 km/h 74% 0 mm 0 W/m2
14:25 12 °C 7 °C 998.82 hPa NNW 13 km/h 27 km/h 73% 0 mm 0 W/m2
14:30 12 °C 7 °C 998.98 hPa NW 10 km/h 23 km/h 75% 0 mm 0 W/m2
14:35 12 °C 7 °C 999.09 hPa NW 19 km/h 27 km/h 74% 0 mm 0 W/m2
14:40 12 °C 7 °C 999.12 hPa WNW 21 km/h 32 km/h 73% 0 mm 0 W/m2
14:45 12 °C 7 °C 999.02 hPa WNW 21 km/h 32 km/h 72% 0 mm 0 W/m2
14:50 12 °C 7 °C 999.02 hPa NW 19 km/h 32 km/h 73% 0 mm 0 W/m2
14:55 12 °C 7 °C 999.09 hPa NW 24 km/h 34 km/h 72% 0 mm 0 W/m2
15:00 12 °C 7 °C 998.98 hPa NW 21 km/h 34 km/h 72% 0 mm 0 W/m2
15:05 12 °C 7 °C 999.19 hPa WNW 23 km/h 32 km/h 72% 0 mm 0 W/m2
15:10 12 °C 7 °C 999.19 hPa WNW 26 km/h 32 km/h 71% 3.3 mm 0 W/m2
15:15 12 °C 7 °C 999.29 hPa WNW 24 km/h 37 km/h 71% 0 mm 0 W/m2
15:20 12 °C 7 °C 999.39 hPa WNW 19 km/h 34 km/h 71% 0 mm 0 W/m2
15:25 12 °C 7 °C 999.29 hPa NW 21 km/h 32 km/h 71% 1.19 mm 0 W/m2
15:30 11 °C 6 °C 999.49 hPa NW 21 km/h 29 km/h 71% 0 mm 0 W/m2
15:35 11 °C 6 °C 999.7 hPa NW 19 km/h 39 km/h 72% 0 mm 0 W/m2
15:40 11 °C 7 °C 999.7 hPa NW 21 km/h 37 km/h 72% 0 mm 0 W/m2
15:45 11 °C 7 °C 999.8 hPa NW 16 km/h 26 km/h 72% 0 mm 0 W/m2
15:50 11 °C 6 °C 999.8 hPa NW 23 km/h 32 km/h 71% 1.5 mm 0 W/m2
15:55 11 °C 6 °C 999.73 hPa NW 16 km/h 32 km/h 71% 0 mm 0 W/m2
16:00 11 °C 6 °C 1000 hPa WNW 19 km/h 29 km/h 71% 0.89 mm 0 W/m2
16:05 11 °C 6 °C 1000.1 hPa WNW 13 km/h 29 km/h 71% 0 mm 0 W/m2
16:10 11 °C 6 °C 1000.2 hPa NW 13 km/h 23 km/h 71% 0 mm 0 W/m2
16:15 12 °C 6 °C 1000.41 hPa NW 23 km/h 27 km/h 71% 0 mm 0 W/m2
16:20 12 °C 6 °C 1000.41 hPa NW 24 km/h 32 km/h 70% 0 mm 0 W/m2
16:25 12 °C 6 °C 1000.41 hPa NW 16 km/h 32 km/h 69% 0 mm 0 W/m2
16:30 12 °C 6 °C 1000.58 hPa NW 19 km/h 32 km/h 70% 0 mm 0 W/m2
16:35 11 °C 6 °C 1000.61 hPa NW 19 km/h 32 km/h 69% 0 mm 0 W/m2
16:40 11 °C 6 °C 1000.71 hPa NW 14 km/h 27 km/h 69% 0 mm 0 W/m2
16:45 11 °C 6 °C 1000.78 hPa WNW 13 km/h 24 km/h 71% 0 mm 0 W/m2
16:50 10 °C 6 °C 1001.02 hPa NW 16 km/h 24 km/h 72% 0 mm 0 W/m2
16:55 10 °C 6 °C 1001.08 hPa NW 23 km/h 29 km/h 76% 0 mm 0 W/m2
17:00 10 °C 6 °C 1001.02 hPa NW 23 km/h 32 km/h 77% 0 mm 0 W/m2
17:05 10 °C 6 °C 1000.98 hPa NW 19 km/h 27 km/h 77% 0 mm 0 W/m2
17:10 10 °C 6 °C 1001.08 hPa NW 19 km/h 24 km/h 80% 0 mm 0 W/m2
17:15 10 °C 6 °C 1001.19 hPa NW 14 km/h 27 km/h 80% 0 mm 0 W/m2
17:20 9 °C 6 °C 1001.39 hPa WNW 16 km/h 26 km/h 81% 0 mm 0 W/m2
17:25 9 °C 7 °C 1001.49 hPa WNW 14 km/h 27 km/h 82% 0.3 mm 0 W/m2
17:30 9 °C 7 °C 1001.66 hPa NW 11 km/h 21 km/h 83% 0 mm 0 W/m2
17:35 9 °C 6 °C 1001.49 hPa NW 13 km/h 24 km/h 84% 0 mm 0 W/m2
17:40 9 °C 6 °C 1001.69 hPa NNW 13 km/h 18 km/h 84% 0 mm 0 W/m2
17:45 9 °C 7 °C 1001.69 hPa N 11 km/h 24 km/h 86% 0 mm 0 W/m2
17:50 9 °C 7 °C 1001.69 hPa NW 16 km/h 24 km/h 87% 0 mm 0 W/m2
17:55 9 °C 7 °C 1001.8 hPa WNW 14 km/h 24 km/h 87% 0 mm 0 W/m2
18:00 9 °C 7 °C 1001.9 hPa WNW 16 km/h 31 km/h 87% 0 mm 0 W/m2
18:05 9 °C 6 °C 1001.9 hPa WNW 19 km/h 32 km/h 87% 0 mm 0 W/m2
18:10 8 °C 6 °C 1002.17 hPa WNW 13 km/h 27 km/h 87% 0 mm 0 W/m2
18:15 8 °C 6 °C 1002.2 hPa NW 13 km/h 27 km/h 87% 0 mm 0 W/m2
18:20 8 °C 6 °C 1002.51 hPa WNW 16 km/h 24 km/h 87% 0 mm 0 W/m2
18:25 8 °C 6 °C 1002.71 hPa NW 13 km/h 23 km/h 87% 0 mm 0 W/m2
18:30 8 °C 6 °C 1002.71 hPa WNW 11 km/h 18 km/h 86% 0 mm 0 W/m2
18:35 8 °C 6 °C 1002.81 hPa WNW 13 km/h 26 km/h 86% 0 mm 0 W/m2
18:40 8 °C 6 °C 1003.01 hPa NW 10 km/h 18 km/h 85% 0 mm 0 W/m2
18:45 8 °C 6 °C 1003.08 hPa WNW 11 km/h 18 km/h 85% 0 mm 0 W/m2
18:50 8 °C 6 °C 1003.12 hPa WNW 10 km/h 16 km/h 85% 0 mm 0 W/m2
18:55 8 °C 6 °C 1003.29 hPa W 10 km/h 13 km/h 85% 0 mm 0 W/m2
19:00 8 °C 6 °C 1003.39 hPa WNW 10 km/h 13 km/h 85% 0 mm 0 W/m2
19:05 8 °C 6 °C 1003.49 hPa WNW 5 km/h 11 km/h 85% 0 mm 0 W/m2
19:10 8 °C 6 °C 1003.49 hPa WNW 8 km/h 13 km/h 85% 0 mm 0 W/m2
19:15 8 °C 6 °C 1003.59 hPa NW 13 km/h 19 km/h 85% 0 mm 0 W/m2
19:20 8 °C 6 °C 1003.69 hPa NW 10 km/h 18 km/h 85% 0 mm 0 W/m2
19:25 8 °C 6 °C 1003.79 hPa WNW 11 km/h 18 km/h 86% 0 mm 0 W/m2
19:30 8 °C 6 °C 1003.62 hPa WNW 5 km/h 14 km/h 85% 0 mm 0 W/m2
19:35 8 °C 6 °C 1004 hPa NW 5 km/h 11 km/h 85% 0 mm 0 W/m2
19:40 8 °C 6 °C 1004.1 hPa NW 10 km/h 13 km/h 85% 0 mm 0 W/m2
19:45 8 °C 6 °C 1004 hPa NW 10 km/h 16 km/h 85% 0 mm 0 W/m2
19:50 8 °C 5 °C 1004.2 hPa WNW 10 km/h 16 km/h 85% 0 mm 0 W/m2
19:55 8 °C 5 °C 1004.4 hPa WNW 11 km/h 19 km/h 85% 0 mm 0 W/m2
20:00 8 °C 5 °C 1004.1 hPa NW 11 km/h 19 km/h 85% 0 mm 0 W/m2
20:05 8 °C 5 °C 1004.1 hPa NW 11 km/h 18 km/h 85% 0 mm 0 W/m2
20:10 8 °C 5 °C 1004.4 hPa NW 11 km/h 19 km/h 85% 0 mm 0 W/m2
20:15 8 °C 5 °C 1004.5 hPa NW 13 km/h 18 km/h 85% 0 mm 0 W/m2
20:20 8 °C 5 °C 1004.71 hPa NW 10 km/h 18 km/h 85% 0 mm 0 W/m2
20:25 8 °C 5 °C 1004.4 hPa NW 13 km/h 14 km/h 85% 0 mm 0 W/m2
20:30 8 °C 5 °C 1004.81 hPa NW 10 km/h 14 km/h 85% 0 mm 0 W/m2
20:35 8 °C 5 °C 1004.91 hPa NW 11 km/h 14 km/h 85% 0 mm 0 W/m2
20:40 7 °C 5 °C 1004.71 hPa WNW 10 km/h 14 km/h 85% 0 mm 0 W/m2
20:45 7 °C 5 °C 1004.91 hPa WNW 10 km/h 13 km/h 85% 0 mm 0 W/m2
20:50 7 °C 5 °C 1004.81 hPa NW 5 km/h 13 km/h 85% 0 mm 0 W/m2
20:55 7 °C 5 °C 1004.91 hPa WNW 10 km/h 13 km/h 85% 0 mm 0 W/m2
21:00 7 °C 5 °C 1004.91 hPa WNW 13 km/h 19 km/h 85% 0 mm 0 W/m2
21:05 7 °C 5 °C 1005.01 hPa NW 5 km/h 19 km/h 85% 0 mm 0 W/m2
21:10 7 °C 5 °C 1005.01 hPa WNW 10 km/h 11 km/h 85% 0 mm 0 W/m2
21:15 7 °C 5 °C 1005.01 hPa W 5 km/h 11 km/h 86% 0 mm 0 W/m2
21:20 7 °C 5 °C 1005.22 hPa WSW 5 km/h 10 km/h 86% 0 mm 0 W/m2
21:25 7 °C 5 °C 1005.11 hPa SW 5 km/h 92 km/h 86% 0 mm 0 W/m2
21:30 7 °C -23 °C 1005.32 hPa SW 93 km/h 93 km/h 10% 0 mm 0 W/m2
21:35 7 °C -23 °C 1005.49 hPa SW 93 km/h 93 km/h 10% 0 mm 0 W/m2
21:40 7 °C -23 °C 1005.32 hPa SW 93 km/h 93 km/h 10% 0 mm 0 W/m2
21:45 7 °C 5 °C 1005.42 hPa WSW 10 km/h 93 km/h 86% 0 mm 0 W/m2
21:50 7 °C 5 °C 1005.49 hPa WNW 10 km/h 13 km/h 86% 0 mm 0 W/m2
21:55 7 °C -23 °C 1005.49 hPa WNW 93 km/h 93 km/h 10% 0 mm 0 W/m2
22:00 7 °C 5 °C 1005.59 hPa W 11 km/h 93 km/h 86% 0 mm 0 W/m2
22:05 7 °C 5 °C 1005.69 hPa SW 11 km/h 16 km/h 86% 0 mm 0 W/m2
22:10 7 °C 5 °C 1005.72 hPa WSW 10 km/h 18 km/h 86% 0 mm 0 W/m2
22:15 7 °C 5 °C 1005.79 hPa W 10 km/h 18 km/h 85% 0 mm 0 W/m2
Garrymore Weather Station, Geashill, Tullamore, Offaly, Ireland
Compliments of Weather Underground - 4 mb